FLOCK 4S-46 (47684 NORAD) Tracking and Keplerian Element Data
This shows tracking and keplerian element data for the satellite.
Feedback or suggestion? Click here.
Element | Value |
Catalog | 47684 |
Name | FLOCK 4S-46 |
Epoch Orbit | 1259 |
Epoch Day | 105.8971778 |
Epoch Year | 2021 |
RAAN | 168.2489 |
Inclination | 97.4968 |
Eccentricity | 0.0007561 |
Argument of Perigee | 352.7633 |
Mean Anonmoly | 7.3488 |
Mean Motion | 15.12951345 |
Decay Rate | 6.74E-06 |
L1 | 1 47684U 21006EK 21105.89717780 .00000674 00000-0 41915-4 0 9995 |
L2 | 2 47684 97.4968 168.2489 0007561 352.7633 7.3488 15.12951345 12593 |
Live tracking and technical data element details for FLOCK 4S-46 (NORAD 47684). FLOCK 4S-46 can be tracked NOW for your location showing map with azimuth and elevation plus other details from your city location.
Track the satellite on the map from your city or location and see movement details for azimuth, elevation, latitude, longitude, range, height, and movement on the map or in text.
IsCatalogInMostPopularTable: catalog: 47684, numindb: 22
Update: records affected: 1
GetName: 47684 FLOCK 4S-46
Hit Count: updated at: Fri, 16 Apr 2021 11:06:12 GMT